JST1226 YSSY-YMML

Flight info

Callsign JST1226
Flight time 1h 9m
Altitude 38000
Route WOL DCT CB DCT BOYSE
Aircraft A320/M-SDE3FGHIRWY/LB1

Departure

Time 2026-04-21 02:20
Airport Sydney Kingsford Smith International Airport (YSSY)

Arrival

Time 2026-04-21 03:29
Airport Melbourne Airport (YMML)
Time Latitude Longitude Altitude Speed Heading
2026-04-21 01:54 -33.93463 151.17704 30 ft 0 kts 99°
2026-04-21 01:59 -33.93463 151.17703 30 ft 0 kts 99°
2026-04-21 02:07 -33.93461 151.17693 30 ft 4 kts 102°
2026-04-21 02:07 -33.93454 151.17662 30 ft 4 kts 108°
2026-04-21 02:08 -33.93447 151.17631 30 ft 4 kts 89°
2026-04-21 02:08 -33.93454 151.17605 30 ft 4 kts 51°
2026-04-21 02:08 -33.93474 151.17586 30 ft 4 kts 12°
2026-04-21 02:08 -33.93499 151.17588 30 ft 4 kts 341°
2026-04-21 02:09 -33.93514 151.17593 30 ft 0 kts 348°
2026-04-21 02:14 -33.93502 151.17590 30 ft 6 kts 348°
2026-04-21 02:15 -33.93469 151.17585 30 ft 6 kts 359°
2026-04-21 02:15 -33.93420 151.17595 30 ft 9 kts
2026-04-21 02:15 -33.93353 151.17585 30 ft 11 kts 351°
2026-04-21 02:15 -33.93271 151.17565 30 ft 13 kts 346°
2026-04-21 02:16 -33.93176 151.17539 30 ft 15 kts 347°
2026-04-21 02:16 -33.93066 151.17529 30 ft 17 kts 26°
2026-04-21 02:16 -33.92988 151.17522 30 ft 8 kts 300°
2026-04-21 02:16 -33.92980 151.17444 30 ft 11 kts 282°
2026-04-21 02:17 -33.92964 151.17344 31 ft 13 kts 281°
2026-04-21 02:17 -33.92960 151.17318 29 ft 0 kts 281°
2026-04-21 02:18 -33.92960 151.17317 29 ft 1 kts 281°
2026-04-21 02:18 -33.92956 151.17295 31 ft 4 kts 281°
2026-04-21 02:18 -33.92955 151.17251 31 ft 6 kts 255°
2026-04-21 02:18 -33.92988 151.17198 30 ft 9 kts 218°
2026-04-21 02:19 -33.93058 151.17191 30 ft 13 kts 168°
2026-04-21 02:19 -33.93358 151.17268 28 ft 79 kts 168°
2026-04-21 02:19 -33.94088 151.17458 26 ft 132 kts 167°
2026-04-21 02:19 -33.95083 151.17701 340 ft 152 kts 167°
2026-04-21 02:20 -33.96137 151.17964 1029 ft 156 kts 170°
2026-04-21 02:20 -33.97207 151.18159 1825 ft 154 kts 175°
2026-04-21 02:20 -33.98319 151.18140 2371 ft 170 kts 183°
2026-04-21 02:20 -33.99575 151.17994 2769 ft 193 kts 184°
2026-04-21 02:21 -34.00997 151.17826 3148 ft 218 kts 184°
2026-04-21 02:21 -34.02583 151.17701 3701 ft 237 kts 176°
2026-04-21 02:21 -34.04221 151.18064 4614 ft 242 kts 167°
2026-04-21 02:21 -34.05873 151.18564 5558 ft 248 kts 166°
2026-04-21 02:22 -34.07545 151.19107 6464 ft 252 kts 165°
2026-04-21 02:22 -34.09250 151.19678 7367 ft 255 kts 165°
2026-04-21 02:22 -34.10971 151.20261 8215 ft 260 kts 165°
2026-04-21 02:22 -34.12737 151.20860 9034 ft 266 kts 165°
2026-04-21 02:23 -34.14530 151.21460 9910 ft 269 kts 165°
2026-04-21 02:23 -34.16375 151.22066 10523 ft 282 kts 167°
2026-04-21 02:23 -34.18382 151.22261 10948 ft 297 kts 185°
2026-04-21 02:23 -34.20377 151.21668 11660 ft 303 kts 201°
2026-04-21 02:24 -34.22185 151.20324 12374 ft 311 kts 219°
2026-04-21 02:24 -34.23665 151.18393 13138 ft 315 kts 226°
2026-04-21 02:24 -34.25102 151.16378 13900 ft 318 kts 226°
2026-04-21 02:24 -34.26551 151.14339 14607 ft 321 kts 227°
2026-04-21 02:25 -34.28013 151.12278 15269 ft 324 kts 227°
2026-04-21 02:25 -34.29489 151.10193 15906 ft 328 kts 226°
2026-04-21 02:25 -34.30978 151.08091 16571 ft 331 kts 227°
2026-04-21 02:25 -34.32482 151.05965 17222 ft 334 kts 227°
2026-04-21 02:26 -34.34003 151.03813 17853 ft 338 kts 227°
2026-04-21 02:26 -34.35539 151.01645 18501 ft 341 kts 226°
2026-04-21 02:26 -34.37106 150.99466 19078 ft 344 kts 223°
2026-04-21 02:26 -34.38870 150.97464 19429 ft 354 kts 219°
2026-04-21 02:27 -34.40721 150.95453 19892 ft 360 kts 219°
2026-04-21 02:27 -34.42598 150.93429 20471 ft 363 kts 219°
2026-04-21 02:27 -34.44494 150.91390 21080 ft 365 kts 219°
2026-04-21 02:27 -34.46401 150.89338 21682 ft 367 kts 219°
2026-04-21 02:28 -34.48314 150.87272 22264 ft 370 kts 219°
2026-04-21 02:28 -34.50234 150.85186 22858 ft 372 kts 219°
2026-04-21 02:28 -34.52164 150.83078 23438 ft 375 kts 219°
2026-04-21 02:28 -34.54106 150.80954 24000 ft 377 kts 219°
2026-04-21 02:29 -34.55900 150.78604 24457 ft 383 kts 229°
2026-04-21 02:29 -34.57350 150.75859 24914 ft 389 kts 236°
2026-04-21 02:29 -34.58701 150.73007 25352 ft 391 kts 236°
2026-04-21 02:29 -34.60066 150.70136 25790 ft 394 kts 236°
2026-04-21 02:30 -34.61424 150.67286 26232 ft 396 kts 236°
2026-04-21 02:30 -34.62822 150.64347 26665 ft 398 kts 236°
2026-04-21 02:30 -34.64191 150.61460 27093 ft 401 kts 236°
2026-04-21 02:30 -34.65581 150.58519 27516 ft 403 kts 237°
2026-04-21 02:31 -34.66982 150.55558 27925 ft 405 kts 237°
2026-04-21 02:31 -34.68390 150.52580 28329 ft 408 kts 237°
2026-04-21 02:31 -34.69806 150.49588 28729 ft 410 kts 237°
2026-04-21 02:31 -34.71231 150.46576 29136 ft 412 kts 237°
2026-04-21 02:32 -34.72664 150.43547 29520 ft 415 kts 237°
2026-04-21 02:32 -34.74105 150.40498 29918 ft 417 kts 237°
2026-04-21 02:32 -34.75551 150.37430 30314 ft 419 kts 237°
2026-04-21 02:32 -34.77004 150.34342 30656 ft 422 kts 237°
2026-04-21 02:33 -34.78461 150.31234 30988 ft 424 kts 237°
2026-04-21 02:33 -34.79915 150.28110 31325 ft 425 kts 237°
2026-04-21 02:33 -34.81373 150.24975 31663 ft 427 kts 237°
2026-04-21 02:33 -34.82845 150.21837 32054 ft 426 kts 237°
2026-04-21 02:34 -34.84313 150.18717 32545 ft 424 kts 237°
2026-04-21 02:34 -34.85776 150.15615 33012 ft 421 kts 237°
2026-04-21 02:34 -34.87227 150.12528 33508 ft 419 kts 237°
2026-04-21 02:34 -34.88666 150.09454 34011 ft 417 kts 237°
2026-04-21 02:35 -34.90094 150.06391 34503 ft 415 kts 237°
2026-04-21 02:35 -34.91513 150.03341 34927 ft 413 kts 237°
2026-04-21 02:35 -34.92920 150.00305 35328 ft 411 kts 237°
2026-04-21 02:35 -34.94333 149.97275 35674 ft 411 kts 237°
2026-04-21 02:36 -34.95743 149.94249 36008 ft 410 kts 237°
2026-04-21 02:36 -34.97132 149.91266 36337 ft 410 kts 237°
2026-04-21 02:36 -34.98537 149.88243 36652 ft 409 kts 238°
2026-04-21 02:36 -34.99936 149.85227 36978 ft 408 kts 238°
2026-04-21 02:37 -35.01330 149.82214 37305 ft 408 kts 238°
2026-04-21 02:37 -35.02725 149.79201 37615 ft 407 kts 238°
2026-04-21 02:37 -35.04116 149.76196 37914 ft 407 kts 238°
2026-04-21 02:37 -35.05504 149.73194 38208 ft 406 kts 238°
2026-04-21 02:38 -35.06891 149.70188 38363 ft 407 kts 238°
2026-04-21 02:38 -35.09671 149.64167 38386 ft 407 kts 238°
2026-04-21 02:39 -35.12454 149.58137 38387 ft 407 kts 238°
2026-04-21 02:39 -35.14760 149.53127 38393 ft 407 kts 238°
2026-04-21 02:40 -35.17995 149.46063 38393 ft 407 kts 238°
2026-04-21 02:40 -35.20763 149.40016 38406 ft 408 kts 238°
2026-04-21 02:41 -35.23517 149.33999 38423 ft 408 kts 238°
2026-04-21 02:41 -35.26285 149.27933 38423 ft 409 kts 238°
2026-04-21 02:42 -35.28606 149.22844 38428 ft 409 kts 238°
2026-04-21 02:42 -35.31736 149.17071 38432 ft 406 kts 232°
2026-04-21 02:43 -35.35071 149.11483 38429 ft 406 kts 232°
2026-04-21 02:43 -35.38408 149.05893 38396 ft 407 kts 232°
2026-04-21 02:44 -35.41741 149.00288 38385 ft 407 kts 232°
2026-04-21 02:44 -35.45063 148.94676 38387 ft 407 kts 232°
2026-04-21 02:45 -35.48382 148.89063 38381 ft 406 kts 232°
2026-04-21 02:45 -35.51704 148.83447 38391 ft 406 kts 232°
2026-04-21 02:46 -35.55002 148.77865 38384 ft 406 kts 232°
2026-04-21 02:46 -35.58335 148.72201 38370 ft 407 kts 232°
2026-04-21 02:47 -35.61651 148.66564 38382 ft 407 kts 232°
2026-04-21 02:47 -35.64939 148.60964 38391 ft 407 kts 232°
2026-04-21 02:48 -35.68272 148.55278 38383 ft 407 kts 232°
2026-04-21 02:48 -35.71556 148.49672 38381 ft 407 kts 232°
2026-04-21 02:49 -35.74858 148.44020 38366 ft 406 kts 232°
2026-04-21 02:49 -35.78155 148.38368 38368 ft 407 kts 232°
2026-04-21 02:50 -35.81453 148.32710 38369 ft 406 kts 232°
2026-04-21 02:50 -35.84742 148.27043 38369 ft 406 kts 232°
2026-04-21 02:51 -35.88035 148.21374 38368 ft 407 kts 232°
2026-04-21 02:51 -35.91327 148.15703 38354 ft 407 kts 233°
2026-04-21 02:52 -35.94619 148.10026 38363 ft 407 kts 233°
2026-04-21 02:52 -35.97903 148.04340 38363 ft 407 kts 233°
2026-04-21 02:53 -36.01189 147.98636 38369 ft 408 kts 233°
2026-04-21 02:53 -36.04475 147.92919 38372 ft 408 kts 233°
2026-04-21 02:54 -36.07763 147.87206 38361 ft 408 kts 233°
2026-04-21 02:54 -36.11067 147.81507 38356 ft 407 kts 228°
2026-04-21 02:55 -36.14474 147.75979 38367 ft 407 kts 231°
2026-04-21 02:55 -36.17986 147.70476 38367 ft 407 kts 230°
2026-04-21 02:56 -36.21530 147.65009 38358 ft 407 kts 230°
2026-04-21 02:56 -36.26776 147.56727 38365 ft 408 kts 231°
2026-04-21 02:57 -36.30258 147.51178 38250 ft 408 kts 231°
2026-04-21 02:57 -36.31999 147.48407 37972 ft 407 kts 231°
2026-04-21 02:57 -36.33741 147.45642 37701 ft 407 kts 231°
2026-04-21 02:58 -36.35483 147.42874 37441 ft 407 kts 231°
2026-04-21 02:58 -36.37226 147.40103 37176 ft 408 kts 231°
2026-04-21 02:58 -36.38972 147.37321 36887 ft 408 kts 231°
2026-04-21 02:58 -36.40717 147.34539 36649 ft 409 kts 231°
2026-04-21 02:59 -36.42466 147.31746 36388 ft 410 kts 231°
2026-04-21 02:59 -36.44215 147.28953 36137 ft 409 kts 231°
2026-04-21 02:59 -36.45961 147.26169 35887 ft 408 kts 231°
2026-04-21 02:59 -36.47702 147.23389 35642 ft 406 kts 231°
2026-04-21 03:00 -36.49430 147.20622 35402 ft 405 kts 231°
2026-04-21 03:00 -36.51150 147.17860 35164 ft 403 kts 231°
2026-04-21 03:00 -36.52863 147.15107 34916 ft 402 kts 231°
2026-04-21 03:00 -36.54569 147.12366 34676 ft 400 kts 231°
2026-04-21 03:01 -36.56267 147.09638 34429 ft 399 kts 231°
2026-04-21 03:01 -36.57939 147.06950 34176 ft 397 kts 231°
2026-04-21 03:01 -36.59630 147.04234 33904 ft 396 kts 231°
2026-04-21 03:01 -36.61312 147.01525 33634 ft 395 kts 231°
2026-04-21 03:02 -36.62986 146.98824 33368 ft 393 kts 231°
2026-04-21 03:02 -36.64654 146.96134 33110 ft 392 kts 231°
2026-04-21 03:02 -36.66318 146.93447 32852 ft 391 kts 231°
2026-04-21 03:02 -36.67974 146.90771 32590 ft 390 kts 231°
2026-04-21 03:03 -36.69626 146.88098 32340 ft 388 kts 231°
2026-04-21 03:03 -36.71272 146.85433 32083 ft 387 kts 231°
2026-04-21 03:03 -36.72908 146.82780 31817 ft 386 kts 231°
2026-04-21 03:03 -36.74541 146.80130 31563 ft 385 kts 231°
2026-04-21 03:04 -36.76173 146.77484 31324 ft 384 kts 231°
2026-04-21 03:04 -36.77796 146.74848 31085 ft 383 kts 231°
2026-04-21 03:04 -36.79418 146.72215 30838 ft 382 kts 231°
2026-04-21 03:04 -36.81032 146.69592 30600 ft 381 kts 231°
2026-04-21 03:05 -36.82641 146.66972 30354 ft 380 kts 231°
2026-04-21 03:05 -36.84243 146.64360 30071 ft 378 kts 231°
2026-04-21 03:05 -36.85841 146.61758 29794 ft 377 kts 231°
2026-04-21 03:05 -36.87435 146.59161 29516 ft 376 kts 231°
2026-04-21 03:06 -36.89024 146.56571 29239 ft 375 kts 231°
2026-04-21 03:06 -36.90606 146.53991 28977 ft 374 kts 231°
2026-04-21 03:06 -36.92182 146.51416 28713 ft 372 kts 231°
2026-04-21 03:06 -36.93752 146.48848 28447 ft 371 kts 231°
2026-04-21 03:07 -36.95314 146.46290 28182 ft 370 kts 231°
2026-04-21 03:07 -36.96873 146.43731 27917 ft 369 kts 231°
2026-04-21 03:07 -36.98424 146.41187 27663 ft 368 kts 231°
2026-04-21 03:07 -36.99974 146.38648 27409 ft 367 kts 231°
2026-04-21 03:08 -37.01518 146.36112 27148 ft 366 kts 231°
2026-04-21 03:08 -37.03054 146.33583 26898 ft 365 kts 231°
2026-04-21 03:08 -37.04586 146.31057 26651 ft 364 kts 231°
2026-04-21 03:08 -37.06115 146.28538 26400 ft 363 kts 231°
2026-04-21 03:09 -37.07641 146.26026 26153 ft 362 kts 231°
2026-04-21 03:09 -37.09144 146.23553 25912 ft 361 kts 231°
2026-04-21 03:09 -37.10660 146.21059 25684 ft 358 kts 231°
2026-04-21 03:09 -37.12159 146.18593 25351 ft 354 kts 231°
2026-04-21 03:10 -37.13645 146.16141 24958 ft 352 kts 231°
2026-04-21 03:10 -37.15124 146.13694 24554 ft 351 kts 231°
2026-04-21 03:10 -37.16594 146.11260 24150 ft 350 kts 231°
2026-04-21 03:10 -37.18063 146.08835 23703 ft 349 kts 231°
2026-04-21 03:11 -37.19526 146.06414 23278 ft 347 kts 231°
2026-04-21 03:11 -37.20978 146.04007 22849 ft 344 kts 231°
2026-04-21 03:11 -37.22417 146.01620 22454 ft 342 kts 231°
2026-04-21 03:11 -37.23844 145.99248 22044 ft 340 kts 231°
2026-04-21 03:12 -37.25266 145.96885 21638 ft 338 kts 231°
2026-04-21 03:12 -37.26677 145.94537 21231 ft 337 kts 231°
2026-04-21 03:12 -37.28085 145.92192 20825 ft 335 kts 231°
2026-04-21 03:12 -37.29487 145.89858 20418 ft 334 kts 231°
2026-04-21 03:13 -37.30881 145.87534 20014 ft 332 kts 231°
2026-04-21 03:13 -37.32270 145.85217 19604 ft 331 kts 231°
2026-04-21 03:13 -37.33653 145.82909 19202 ft 331 kts 231°
2026-04-21 03:13 -37.35033 145.80601 18797 ft 330 kts 231°
2026-04-21 03:14 -37.36407 145.78300 18355 ft 329 kts 231°
2026-04-21 03:14 -37.37779 145.76006 17951 ft 327 kts 230°
2026-04-21 03:14 -37.39141 145.73730 17543 ft 325 kts 231°
2026-04-21 03:14 -37.40491 145.71466 17149 ft 323 kts 231°
2026-04-21 03:15 -37.41831 145.69218 16763 ft 321 kts 231°
2026-04-21 03:15 -37.43167 145.66976 16363 ft 319 kts 231°
2026-04-21 03:15 -37.44494 145.64749 15973 ft 318 kts 231°
2026-04-21 03:15 -37.45816 145.62525 15572 ft 317 kts 231°
2026-04-21 03:16 -37.47121 145.60298 15170 ft 316 kts 232°
2026-04-21 03:16 -37.48416 145.58067 14770 ft 315 kts 232°
2026-04-21 03:16 -37.49703 145.55841 14374 ft 314 kts 232°
2026-04-21 03:16 -37.50971 145.53651 13972 ft 314 kts 232°
2026-04-21 03:17 -37.52256 145.51434 13550 ft 312 kts 232°
2026-04-21 03:17 -37.53532 145.49229 13163 ft 311 kts 232°
2026-04-21 03:17 -37.54804 145.47032 12762 ft 309 kts 233°
2026-04-21 03:17 -37.56066 145.44854 12365 ft 307 kts 232°
2026-04-21 03:18 -37.57328 145.42684 11979 ft 306 kts 233°
2026-04-21 03:18 -37.58580 145.40526 11591 ft 304 kts 232°
2026-04-21 03:18 -37.59825 145.38379 11207 ft 303 kts 233°
2026-04-21 03:18 -37.61049 145.36265 11038 ft 294 kts 233°
2026-04-21 03:19 -37.62237 145.34207 10640 ft 287 kts 233°
2026-04-21 03:19 -37.63404 145.32183 10110 ft 282 kts 233°
2026-04-21 03:19 -37.64550 145.30193 9471 ft 279 kts 234°
2026-04-21 03:19 -37.65673 145.28243 9046 ft 269 kts 234°
2026-04-21 03:20 -37.66758 145.26359 8706 ft 263 kts 234°
2026-04-21 03:20 -37.67835 145.24486 8370 ft 264 kts 235°
2026-04-21 03:20 -37.68917 145.22609 8031 ft 265 kts 234°
2026-04-21 03:20 -37.70003 145.20726 7691 ft 266 kts 235°
2026-04-21 03:21 -37.71095 145.18828 7347 ft 267 kts 236°
2026-04-21 03:21 -37.72186 145.16931 7006 ft 268 kts 235°
2026-04-21 03:21 -37.73277 145.15035 6768 ft 263 kts 235°
2026-04-21 03:21 -37.74335 145.13195 6642 ft 255 kts 236°
2026-04-21 03:22 -37.75358 145.11413 6510 ft 247 kts 235°
2026-04-21 03:22 -37.76363 145.09665 6443 ft 242 kts 236°
2026-04-21 03:22 -37.77346 145.07955 6171 ft 241 kts 236°
2026-04-21 03:22 -37.78332 145.06235 5824 ft 242 kts 235°
2026-04-21 03:23 -37.79317 145.04513 5487 ft 242 kts 236°
2026-04-21 03:23 -37.80297 145.02797 5149 ft 244 kts 236°
2026-04-21 03:23 -37.81213 145.01011 5006 ft 234 kts 247°
2026-04-21 03:23 -37.81674 144.99122 5004 ft 218 kts 259°
2026-04-21 03:24 -37.81999 144.97225 4534 ft 226 kts 259°
2026-04-21 03:24 -37.82344 144.95227 3958 ft 238 kts 260°
2026-04-21 03:24 -37.82677 144.93183 3652 ft 240 kts 262°
2026-04-21 03:24 -37.82949 144.91119 3404 ft 237 kts 263°
2026-04-21 03:25 -37.83149 144.89034 3063 ft 235 kts 275°
2026-04-21 03:25 -37.82598 144.87168 2625 ft 227 kts 314°
2026-04-21 03:25 -37.81278 144.86248 2315 ft 212 kts 347°
2026-04-21 03:25 -37.79876 144.85931 2154 ft 197 kts 353°
2026-04-21 03:26 -37.78572 144.85738 2026 ft 188 kts 354°
2026-04-21 03:26 -37.77315 144.85562 1904 ft 173 kts 353°
2026-04-21 03:26 -37.76189 144.85396 1747 ft 153 kts 354°
2026-04-21 03:26 -37.75191 144.85237 1679 ft 139 kts 354°
2026-04-21 03:27 -37.74233 144.85076 1487 ft 134 kts 354°
2026-04-21 03:27 -37.73322 144.84921 1311 ft 132 kts 354°
2026-04-21 03:27 -37.72418 144.84766 1121 ft 133 kts 355°
2026-04-21 03:27 -37.71813 144.84661 1014 ft 132 kts 349°
2026-04-21 03:28 -37.70600 144.84445 765 ft 136 kts 352°
2026-04-21 03:28 -37.69683 144.84283 576 ft 136 kts 355°
2026-04-21 03:28 -37.68757 144.84119 414 ft 132 kts 354°
2026-04-21 03:28 -37.67893 144.83964 357 ft 115 kts 352°
2026-04-21 03:29 -37.67429 144.83885 370 ft 83 kts 352°
2026-04-21 03:29 -37.66943 144.83789 388 ft 37 kts 354°
2026-04-21 03:29 -37.66776 144.83762 395 ft 37 kts 351°
2026-04-21 03:29 -37.66575 144.83749 401 ft 22 kts 20°
2026-04-21 03:30 -37.66511 144.83849 404 ft 12 kts 77°
2026-04-21 03:30 -37.66512 144.83900 404 ft 0 kts 97°
2026-04-21 03:31 -37.66513 144.83903 404 ft 0 kts 97°
2026-04-21 03:31 -37.66513 144.83905 404 ft 1 kts 97°
2026-04-21 03:31 -37.66515 144.83928 404 ft 4 kts 95°
2026-04-21 03:32 -37.66517 144.83978 404 ft 7 kts 92°
2026-04-21 03:32 -37.66521 144.84053 404 ft 10 kts 99°
2026-04-21 03:32 -37.66569 144.84134 399 ft 14 kts 146°
2026-04-21 03:32 -37.66679 144.84172 397 ft 20 kts 172°
2026-04-21 03:33 -37.66834 144.84199 391 ft 25 kts 170°
2026-04-21 03:33 -37.67024 144.84234 385 ft 30 kts 172°
2026-04-21 03:33 -37.67184 144.84266 382 ft 24 kts 171°
2026-04-21 03:33 -37.67360 144.84299 379 ft 28 kts 173°
2026-04-21 03:34 -37.67477 144.84347 376 ft 15 kts 118°
2026-04-21 03:34 -37.67468 144.84443 378 ft 11 kts 87°
2026-04-21 03:34 -37.67493 144.84535 378 ft 13 kts 144°
2026-04-21 03:34 -37.67550 144.84550 377 ft 0 kts 172°
2026-04-21 03:35 -37.67561 144.84552 376 ft 4 kts 172°
2026-04-21 03:35 -37.67586 144.84569 376 ft 1 kts 109°
2026-04-21 03:35 -37.67582 144.84589 376 ft 3 kts 77°
2026-04-21 03:35 -37.67578 144.84616 377 ft 4 kts 81°
2026-04-21 03:36 -37.67573 144.84652 377 ft 1 kts 81°
2026-04-21 03:36 -37.67573 144.84655 377 ft 1 kts 80°
2026-04-21 03:36 -37.67573 144.84656 377 ft 0 kts 80°